SCP
0 0 0 0 0 0 0 0 0 0 0 0 0 0 0 0 0 0 0 0 0 0
0 0 0 0 0 0 0 0 0 0 0 0 0 0 0 0 0 0 0 0 0 0
0 0 0 0 0 0 0 0 0 0 0 0 0 0 0 0 0 0 0 0 0 0
0 0 0 0 0 0 0 0 0 0 0 0 0 0 0 0 0 0 0 0 0 0
0 0 0 0 0 0 0 0 0 0 0 0 0 0 0 0 0 0 0 0 0 0
0 0 0 0 0 0 0 0 0 0 0 0 0 0 0 0 0 0 0 0 0 0
0 0 0 0 0 0 0 0 0 0 0 0 0 0 0 0 0 0 0 0 0 0
0 0 0 0 0 0 0 0 0 0 0 0 0 0 0 0 0 0 0 0 0 0
0 0 0 0 0 0 0 0 0 0 0 0 0 0 0 0 0 0 0 0 0 0
0 0 0 0 0 0 0 0 0 0 0 0 0 0 0 0 0 0 0 0 0 0
0 0 0 0 0 0 0 0 0 0 0 0 0 0 0 0 0 0 0 0 0 0
0 0 0 0 0 0 0 0 0 0 0 0 0 0 0 0 0 0 0 0 0 0
0 0 0 0 0 0 0 0 0 0 0 0 0 0 0 0 0 0 0 0 0 0
0 0 0 0 0 0 0 0 0 0 0 0 0 0 0 0 0 0 0 0 0 0
Wind_Speed_500mb
31 26 23 17 10 7 6 11 13 17 23 29 32 34 35 34 33 25 26 32 38 35
34 29 24 20 15 12 10 12 15 20 26 30 33 36 35 30 27 25 26 28 28 34
35 30 26 20 17 17 15 14 19 24 28 31 32 34 31 24 20 20 21 23 31 39
38 32 29 25 21 20 19 19 17 22 26 34 37 35 29 23 21 21 22 27 31 35
38 35 31 25 24 23 22 18 19 24 30 35 35 28 21 19 18 22 26 29 31 33
38 36 32 28 27 25 18 16 15 27 30 30 27 21 19 21 24 26 28 29 30 34
40 39 36 31 31 22 15 15 22 27 27 22 16 18 19 22 23 25 27 29 33 35
41 39 37 34 28 16 13 17 23 22 15 11 13 16 21 24 28 31 32 33 33 29
46 43 39 35 18 14 10 18 21 11 8 9 14 17 24 28 31 31 31 32 28 24
52 48 39 24 15 10 13 20 13 5 5 9 13 19 22 24 26 28 26 24 25 20
53 45 32 21 15 12 17 10 1 1 6 8 13 15 19 20 20 19 21 24 25 25
50 40 29 21 12 14 9 6 4 2 1 7 9 13 16 18 15 13 19 22 26 27
43 33 23 13 13 11 11 8 10 6 1 4 7 9 14 18 17 16 18 17 22 24
41 28 18 17 17 15 16 14 12 8 5 4 7 9 13 16 19 20 21 23 24 28
Wind_Direction_500mb
200 197 193 196 201 213 277 313 317 327 338 337 332 332 331 330 331 327 318 324 320 328
200 197 197 198 211 227 268 293 301 316 326 330 332 331 329 328 325 323 323 329 337 339
204 198 198 208 219 230 244 263 294 309 323 330 332 329 330 329 327 325 327 329 331 339
198 198 202 208 219 239 254 261 284 305 317 327 328 327 322 319 322 323 323 323 328 335
197 201 204 214 223 238 250 274 298 308 324 329 334 338 335 331 332 328 326 331 333 339
200 205 213 221 230 234 250 273 308 321 325 335 338 339 339 335 333 330 331 335 339 338
206 208 215 225 226 239 260 300 315 319 330 335 348 347 342 341 339 339 338 334 331 328
207 213 217 223 219 228 280 306 325 327 334 345 347 342 342 342 336 331 328 331 337 342
210 215 219 215 225 274 281 323 334 331 339 341 342 343 339 333 333 336 341 346 353 354
211 209 205 216 224 241 295 317 313 318 340 342 344 342 343 352 358 5 12 19 16 19
205 203 201 206 220 262 299 295 227 335 348 1 358 13 16 10 18 33 25 11 6 6
200 193 195 203 234 280 255 189 211 214 23 1 19 19 27 28 32 31 10 14 18 17
186 187 190 213 261 230 190 214 188 190 205 38 36 38 38 35 33 26 33 27 19 12
181 183 202 236 199 181 159 145 153 160 131 72 68 43 33 36 42 38 34 24 12 358
Wind_Speed_850mb
31 26 23 17 10 7 6 11 13 17 23 29 32 34 35 34 33 25 26 32 38 35
34 29 24 20 15 12 10 12 15 20 26 30 33 36 35 30 27 25 26 28 28 34
35 30 26 20 17 17 15 14 19 24 28 31 32 34 31 24 20 20 21 23 31 39
38 32 29 25 21 20 19 19 17 22 26 34 37 35 29 23 21 21 22 27 31 35
38 35 31 25 24 23 22 18 19 24 30 35 35 28 21 19 18 22 26 29 31 33
38 36 32 28 27 25 18 16 15 27 30 30 27 21 19 21 24 26 28 29 30 34
40 39 36 31 31 22 15 15 22 27 27 22 16 18 19 22 23 25 27 29 33 35
41 39 37 34 28 16 13 17 23 22 15 11 13 16 21 24 28 31 32 33 33 29
46 43 39 35 18 14 10 18 21 11 8 9 14 17 24 28 31 31 31 32 28 24
52 48 39 24 15 10 13 20 13 5 5 9 13 19 22 24 26 28 26 24 25 20
53 45 32 21 15 12 17 10 1 1 6 8 13 15 19 20 20 19 21 24 25 25
50 40 29 21 12 14 9 6 4 2 1 7 9 13 16 18 15 13 19 22 26 27
43 33 23 13 13 11 11 8 10 6 1 4 7 9 14 18 17 16 18 17 22 24
41 28 18 17 17 15 16 14 12 8 5 4 7 9 13 16 19 20 21 23 24 28
Wind_Direction_850mb
200 197 193 196 201 213 277 313 317 327 338 337 332 332 331 330 331 327 318 324 320 328
200 197 197 198 211 227 268 293 301 316 326 330 332 331 329 328 325 323 323 329 337 339
204 198 198 208 219 230 244 263 294 309 323 330 332 329 330 329 327 325 327 329 331 339
198 198 202 208 219 239 254 261 284 305 317 327 328 327 322 319 322 323 323 323 328 335
197 201 204 214 223 238 250 274 298 308 324 329 334 338 335 331 332 328 326 331 333 339
200 205 213 221 230 234 250 273 308 321 325 335 338 339 339 335 333 330 331 335 339 338
206 208 215 225 226 239 260 300 315 319 330 335 348 347 342 341 339 339 338 334 331 328
207 213 217 223 219 228 280 306 325 327 334 345 347 342 342 342 336 331 328 331 337 342
210 215 219 215 225 274 281 323 334 331 339 341 342 343 339 333 333 336 341 346 353 354
211 209 205 216 224 241 295 317 313 318 340 342 344 342 343 352 358 5 12 19 16 19
205 203 201 206 220 262 299 295 227 335 348 1 358 13 16 10 18 33 25 11 6 6
200 193 195 203 234 280 255 189 211 214 23 1 19 19 27 28 32 31 10 14 18 17
186 187 190 213 261 230 190 214 188 190 205 38 36 38 38 35 33 26 33 27 19 12
181 183 202 236 199 181 159 145 153 160 131 72 68 43 33 36 42 38 34 24 12 358